El Hierro > ESTACION METEOROLÓGICA La Dehesa - Frontera

DATOS ACTUALES Online

Ultima actulizacion 1 minutos

18.2 ºC

Temperatura

57

Humedad (%)

Presión (mb)

0

Precipitación (mm)

32 NW

Viento (Km/h)

DATOS DIARIOS

Temperatura últimas 24 horas (ºC)

Humedad últimas 24 horas (%)

Presión atmosférica últimas 24 horas (mb)

Precipitaciones últimas 23 horas (mm)

Viento últimas 24 horas (Km/h)

Hora Temperatura (°C) ºC Precipitación (mm) mm Presión (mb) mb Humedad (%) % Viento (Km/h) km/h
29 - 00:00 18.1 0 0 49 27.7 N
29 - 01:00 18.1 0 0 50 25.6 NO
29 - 02:00 18.1 0 0 48 32.1 NO
29 - 03:00 18.2 0 0 54 27.5 NO
29 - 04:00 18.1 0 0 58 16.6 N
29 - 05:00 18.2 0 0 60 19.7 N
29 - 06:00 18.2 0 0 57 17.7 NO
29 - 07:00 18.9 0 0 52 11.4 NO
29 - 08:00 18.2 0 0 60 8.6 NW
29 - 09:00 18.7 0 0 55 15.4 N
29 - 10:00 18.9 0 0 61 18.9 NW
29 - 11:00
29 - 12:00 19.5 0 0 53 24.3 N
29 - 13:00 19.7 0 0 51 26.5 N
29 - 14:00 20.6 0 0 34 21.9 NW
29 - 15:00 21.4 0 0 55 24.3 NW
29 - 16:00 21.5 0 0 53 31.2 NW
29 - 17:00 21 0 0 65 41.7 NW
29 - 18:00 20.9 0 0 65 25.9 NW
29 - 19:00 20.8 0 0 66 27.1 NW
29 - 20:00 19.7 0 0 68 33.3 NW
29 - 21:00 20.5 0 0 60 30.6 NW
29 - 22:00 19.3 0 0 61 26.1 N
29 - 23:00 18.6 0 0 69 31.3 NW
30 - 00:00 18.2 0 0 57 32 NW
Apalmet utiliza cookies propias y de terceros para mejorar la usabilidad y la experiencia web. Política de cookies.